Overview Statistics Trail Chart Weather Telemetry Raw packets
 

This is the latest recevied weather packets stored in our database for station/object KB1RMA-4. If no packets are shown the sender has not sent any weather packets the latest 10 day(s).

<< 15 16 17 18 19 20 21 >>
Time Temp. Humidity Pressure Rain* Wind** Luminosity Snow
1788529073 21.11° C 88% 1010.1 hPa 0 mm - 155 W/m² -
1788528768 21.11° C 89% 1010.2 hPa 0 mm - 98 W/m² -
1788528467 20.56° C 89% 1010.2 hPa 0 mm - 124 W/m² -
1788528163 20.56° C 90% 1010.4 hPa 0 mm - 175 W/m² -
1788527862 20.56° C 91% 1010.3 hPa 0 mm - 311 W/m² -
1788527558 20° C 92% 1010.3 hPa 0 mm - 234 W/m² -
1788527258 20° C 93% 1010 hPa 0 mm - 178 W/m² -
1788526957 19.44° C 94% 1010.2 hPa 0 mm - 167 W/m² -
1788526654 19.44° C 95% 1010.4 hPa 0 mm - 150 W/m² -
1788526363 19.44° C 96% 1010.4 hPa 0 mm - 144 W/m² -
1788526049 18.89° C 97% 1010.3 hPa 0 mm - 179 W/m² -
1788525746 19.44° C 97% 1010.3 hPa 0 mm - 197 W/m² -
1788525440 18.89° C 97% 1010.2 hPa 0 mm - 121 W/m² -
1788525136 18.89° C 97% 1010.2 hPa 0 mm - 118 W/m² -
1788524835 18.89° C 97% 1010.2 hPa 0 mm - 119 W/m² -
1788524530 18.89° C 98% 1010.2 hPa 0 mm - 104 W/m² -
1788524226 18.33° C 98% 1010.3 hPa 0 mm - 110 W/m² -
1788523921 18.33° C 98% 1010.5 hPa 0 mm - 97 W/m² -
1788523617 18.33° C 98% 1010.4 hPa 0 mm - 85 W/m² -
1788523313 18.89° C 98% 1010.2 hPa 0 mm - 75 W/m² -
1788523009 18.33° C 98% 1010.3 hPa 0 mm - 79 W/m² -
1788522704 18.33° C 98% 1010.4 hPa 0 mm - 76 W/m² -
1788522403 18.33° C 98% 1010.4 hPa 0 mm - 88 W/m² -
1788522104 18.33° C 98% 1010.4 hPa 0 mm - 60 W/m² -
1788521803 18.33° C 98% 1010.3 hPa 0 mm - 49 W/m² -

* Rain latest hour (hover to see other rain measurements)
** Current wind speed in m/s (hover to see current wind gust speed)